Time,TemperatureF,DewpointF,PressureIn,WindDirection,WindDirectionDegrees,WindSpeedMPH,WindSpeedGustMPH,Humidity,HourlyPrecipIn,Conditions,Clouds,dailyrainin,SolarRadiationWatts/m^2,SoftwareType,DateUTC
2013-10-27 00:12:00,75.8,72.0,29.99,South,182,0.0,1.0,88,0.00,,,0.00,0,weatherlink.com 1.10,2013-10-27 10:12:00,
2013-10-27 00:29:00,75.5,72.0,29.98,South,182,1.0,1.0,89,0.00,,,0.00,0,weatherlink.com 1.10,2013-10-27 10:29:00,
2013-10-27 00:44:00,75.7,72.0,29.98,South,182,1.0,2.0,89,0.00,,,0.00,0,weatherlink.com 1.10,2013-10-27 10:44:00,
2013-10-27 00:59:00,75.5,72.0,29.98,South,182,0.0,1.0,89,0.00,,,0.00,0,weatherlink.com 1.10,2013-10-27 10:59:00,
2013-10-27 01:14:00,75.3,72.0,29.98,South,182,0.0,0.0,89,0.00,,,0.00,0,weatherlink.com 1.10,2013-10-27 11:14:00,
2013-10-27 01:29:00,75.1,72.0,29.98,South,182,0.0,0.0,90,0.00,,,0.00,0,weatherlink.com 1.10,2013-10-27 11:29:00,
2013-10-27 01:44:00,74.9,72.0,29.97,South,182,0.0,0.0,89,0.00,,,0.00,0,weatherlink.com 1.10,2013-10-27 11:44:00,
2013-10-27 01:59:00,74.9,72.0,29.97,South,182,0.0,1.0,89,0.00,,,0.00,0,weatherlink.com 1.10,2013-10-27 11:59:00,
2013-10-27 02:14:00,75.0,72.0,29.96,South,182,0.0,1.0,90,0.00,,,0.00,0,weatherlink.com 1.10,2013-10-27 12:14:00,
2013-10-27 02:29:00,75.0,72.0,29.96,South,182,0.0,0.0,90,0.00,,,0.00,0,weatherlink.com 1.10,2013-10-27 12:29:00,
2013-10-27 02:44:00,74.9,72.0,29.95,South,182,0.0,0.0,91,0.00,,,0.00,0,weatherlink.com 1.10,2013-10-27 12:44:00,
2013-10-27 02:59:00,75.0,72.0,29.95,South,182,0.0,2.0,91,0.00,,,0.00,0,weatherlink.com 1.10,2013-10-27 12:59:00,
2013-10-27 03:14:00,75.1,72.0,29.95,South,182,1.0,2.0,91,0.00,,,0.00,0,weatherlink.com 1.10,2013-10-27 13:14:00,
2013-10-27 03:29:00,74.9,72.0,29.95,SSW,194,1.0,3.0,91,0.00,,,0.00,0,weatherlink.com 1.10,2013-10-27 13:29:00,
2013-10-27 03:44:00,74.7,72.0,29.95,SSW,194,2.0,3.0,91,0.00,,,0.00,0,weatherlink.com 1.10,2013-10-27 13:44:00,
2013-10-27 03:59:00,74.7,72.0,29.95,SSW,194,1.0,2.0,91,0.00,,,0.00,0,weatherlink.com 1.10,2013-10-27 13:59:00,
2013-10-27 04:29:00,74.5,72.0,29.95,SSW,194,1.0,2.0,91,0.00,,,0.00,0,weatherlink.com 1.10,2013-10-27 14:29:00,
2013-10-27 04:44:00,74.4,71.0,29.95,SSW,194,0.0,1.0,90,0.00,,,0.00,0,weatherlink.com 1.10,2013-10-27 14:44:00,
2013-10-27 04:59:00,74.3,71.0,29.96,SSW,194,0.0,0.0,90,0.00,,,0.00,0,weatherlink.com 1.10,2013-10-27 14:59:00,
2013-10-27 05:14:00,74.4,71.0,29.95,SSW,194,0.0,2.0,90,0.00,,,0.00,0,weatherlink.com 1.10,2013-10-27 15:14:00,
2013-10-27 05:29:00,74.9,72.0,29.95,SSW,194,0.0,1.0,91,0.00,,,0.00,0,weatherlink.com 1.10,2013-10-27 15:29:00,
2013-10-27 05:45:00,75.2,73.0,29.95,SSW,194,0.0,2.0,91,0.00,,,0.00,0,weatherlink.com 1.10,2013-10-27 15:45:00,
2013-10-27 05:59:00,75.0,72.0,29.96,East,86,0.0,1.0,91,0.00,,,0.00,0,weatherlink.com 1.10,2013-10-27 15:59:00,
2013-10-27 06:14:00,74.8,72.0,29.96,ENE,74,0.0,1.0,92,0.00,,,0.00,0,weatherlink.com 1.10,2013-10-27 16:14:00,
2013-10-27 06:30:00,75.0,73.0,29.97,East,82,0.0,1.0,92,0.00,,,0.00,0,weatherlink.com 1.10,2013-10-27 16:30:00,
2013-10-27 06:45:00,74.5,72.0,29.97,East,82,0.0,2.0,92,0.00,,,0.00,16,weatherlink.com 1.10,2013-10-27 16:45:00,
2013-10-27 07:00:00,75.1,73.0,29.97,East,82,0.0,1.0,92,0.00,,,0.00,39,weatherlink.com 1.10,2013-10-27 17:00:00,
2013-10-27 07:15:00,76.0,73.0,29.98,East,82,0.0,1.0,90,0.00,,,0.00,81,weatherlink.com 1.10,2013-10-27 17:15:00,
2013-10-27 07:30:00,77.4,74.0,29.98,East,84,2.0,4.0,89,0.00,,,0.00,132,weatherlink.com 1.10,2013-10-27 17:30:00,
2013-10-27 07:45:00,78.6,75.0,29.98,ENE,75,0.0,4.0,87,0.00,,,0.00,190,weatherlink.com 1.10,2013-10-27 17:45:00,
2013-10-27 08:00:00,79.7,76.0,29.99,ENE,75,2.0,4.0,87,0.00,,,0.00,251,weatherlink.com 1.10,2013-10-27 18:00:00,
2013-10-27 08:16:00,80.6,76.0,29.99,East,82,0.0,4.0,85,0.00,,,0.00,304,weatherlink.com 1.10,2013-10-27 18:16:00,
2013-10-27 08:30:00,80.9,76.0,30.00,North,10,0.0,5.0,84,0.00,,,0.00,352,weatherlink.com 1.10,2013-10-27 18:30:00,
2013-10-27 08:45:00,80.9,76.0,30.00,North,10,0.0,3.0,84,0.00,,,0.00,418,weatherlink.com 1.10,2013-10-27 18:45:00,
2013-10-27 09:01:00,82.3,76.0,30.01,North,4,3.0,5.0,81,0.00,,,0.00,545,weatherlink.com 1.10,2013-10-27 19:01:00,
2013-10-27 09:16:00,82.7,75.0,30.01,North,3,2.0,5.0,78,0.00,,,0.00,575,weatherlink.com 1.10,2013-10-27 19:16:00,
2013-10-27 09:31:00,81.9,74.0,30.02,North,5,4.0,5.0,78,0.00,,,0.00,232,weatherlink.com 1.10,2013-10-27 19:31:00,
2013-10-27 09:46:00,81.7,75.0,30.02,NNE,12,1.0,4.0,81,0.00,,,0.00,635,weatherlink.com 1.10,2013-10-27 19:46:00,
2013-10-27 10:01:00,83.7,76.0,30.02,ENE,65,4.0,6.0,78,0.00,,,0.00,204,weatherlink.com 1.10,2013-10-27 20:01:00,
2013-10-27 10:16:00,84.3,77.0,30.02,SE,124,5.0,8.0,79,0.00,,,0.00,733,weatherlink.com 1.10,2013-10-27 20:16:00,
2013-10-27 10:31:00,83.7,77.0,30.02,ESE,106,8.0,11.0,80,0.00,,,0.00,656,weatherlink.com 1.10,2013-10-27 20:31:00,
2013-10-27 10:46:00,82.0,76.0,30.01,East,86,6.0,10.0,82,0.00,,,0.00,162,weatherlink.com 1.10,2013-10-27 20:46:00,
2013-10-27 11:01:00,81.2,76.0,30.01,East,98,3.0,10.0,83,0.00,,,0.00,144,weatherlink.com 1.10,2013-10-27 21:01:00,
2013-10-27 11:16:00,79.6,75.0,30.01,ESE,107,2.0,9.0,86,0.01,,,0.01,47,weatherlink.com 1.10,2013-10-27 21:16:00,
2013-10-27 11:31:00,77.8,75.0,30.00,SE,136,6.0,11.0,92,0.25,,,0.25,76,weatherlink.com 1.10,2013-10-27 21:31:00,
2013-10-27 11:47:00,76.9,75.0,30.00,ENE,62,5.0,6.0,94,0.34,,,0.34,156,weatherlink.com 1.10,2013-10-27 21:47:00,
2013-10-27 12:02:00,75.4,74.0,29.99,South,182,0.0,4.0,94,0.34,,,0.34,176,weatherlink.com 1.10,2013-10-27 22:02:00,
2013-10-27 12:17:00,75.0,73.0,29.98,WSW,242,1.0,7.0,94,0.32,,,0.34,257,weatherlink.com 1.10,2013-10-27 22:17:00,
2013-10-27 12:32:00,76.3,75.0,29.98,SW,234,4.0,7.0,95,0.07,,,0.34,779,weatherlink.com 1.10,2013-10-27 22:32:00,
2013-10-27 12:47:00,78.2,76.0,29.97,WNW,299,2.0,7.0,93,0.00,,,0.34,740,weatherlink.com 1.10,2013-10-27 22:47:00,
2013-10-27 13:02:00,80.0,77.0,29.96,ENE,63,1.0,7.0,91,0.00,,,0.34,729,weatherlink.com 1.10,2013-10-27 23:02:00,
2013-10-27 13:17:00,79.5,75.0,29.96,East,82,1.0,4.0,87,0.00,,,0.34,624,weatherlink.com 1.10,2013-10-27 23:17:00,
2013-10-27 13:32:00,78.9,74.0,29.96,East,97,0.0,4.0,86,0.00,,,0.34,183,weatherlink.com 1.10,2013-10-27 23:32:00,
2013-10-27 13:47:00,79.4,75.0,29.96,NE,50,2.0,4.0,86,0.00,,,0.34,141,weatherlink.com 1.10,2013-10-27 23:47:00,
2013-10-27 14:02:00,79.4,76.0,29.95,ENE,77,2.0,6.0,88,0.00,,,0.34,174,weatherlink.com 1.10,2013-10-28 00:02:00,
2013-10-27 14:17:00,78.5,75.0,29.95,NNE,15,0.0,5.0,88,0.00,,,0.34,37,weatherlink.com 1.10,2013-10-28 00:17:00,
2013-10-27 14:32:00,78.2,75.0,29.95,NNE,25,0.0,2.0,89,0.00,,,0.34,53,weatherlink.com 1.10,2013-10-28 00:32:00,
2013-10-27 14:47:00,77.4,74.0,29.94,SW,217,0.0,5.0,88,0.00,,,0.34,65,weatherlink.com 1.10,2013-10-28 00:47:00,
2013-10-27 15:03:00,77.3,74.0,29.94,West,264,2.0,2.0,88,0.00,,,0.34,97,weatherlink.com 1.10,2013-10-28 01:03:00,
2013-10-27 15:18:00,78.4,74.0,29.94,West,264,0.0,0.0,87,0.00,,,0.34,403,weatherlink.com 1.10,2013-10-28 01:18:00,
2013-10-27 15:33:00,79.2,76.0,29.94,East,81,0.0,4.0,89,0.00,,,0.34,105,weatherlink.com 1.10,2013-10-28 01:33:00,
2013-10-27 15:48:00,78.6,75.0,29.94,ENE,77,0.0,2.0,88,0.00,,,0.34,35,weatherlink.com 1.10,2013-10-28 01:48:00,
2013-10-27 16:03:00,78.4,75.0,29.94,ENE,77,0.0,0.0,88,0.00,,,0.34,21,weatherlink.com 1.10,2013-10-28 02:03:00,
2013-10-27 16:18:00,78.3,75.0,29.95,ENE,77,1.0,2.0,89,0.00,,,0.34,18,weatherlink.com 1.10,2013-10-28 02:18:00,
2013-10-27 16:33:00,77.7,74.0,29.95,ENE,77,3.0,3.0,89,0.00,,,0.34,14,weatherlink.com 1.10,2013-10-28 02:33:00,
2013-10-27 16:48:00,77.4,74.0,29.95,SW,233,1.0,4.0,89,0.00,,,0.34,16,weatherlink.com 1.10,2013-10-28 02:48:00,
2013-10-27 17:03:00,77.4,74.0,29.96,SW,235,0.0,2.0,88,0.00,,,0.34,14,weatherlink.com 1.10,2013-10-28 03:03:00,
2013-10-27 17:18:00,77.8,75.0,29.96,SW,235,0.0,0.0,90,0.00,,,0.34,25,weatherlink.com 1.10,2013-10-28 03:18:00,
2013-10-27 17:33:00,77.7,75.0,29.96,SW,235,0.0,1.0,90,0.00,,,0.34,9,weatherlink.com 1.10,2013-10-28 03:33:00,
2013-10-27 17:48:00,77.6,75.0,29.97,SW,235,0.0,1.0,91,0.00,,,0.34,5,weatherlink.com 1.10,2013-10-28 03:48:00,
2013-10-27 18:03:00,77.7,75.0,29.97,WSW,249,2.0,3.0,91,0.00,,,0.34,0,weatherlink.com 1.10,2013-10-28 04:03:00,
2013-10-27 18:20:00,77.7,75.0,29.98,NW,313,0.0,4.0,90,0.00,,,0.34,0,weatherlink.com 1.10,2013-10-28 04:20:00,
2013-10-27 18:33:00,77.7,74.0,29.98,NW,313,1.0,4.0,89,0.00,,,0.34,0,weatherlink.com 1.10,2013-10-28 04:33:00,
2013-10-27 18:50:00,78.0,74.0,29.99,North,355,0.0,3.0,88,0.00,,,0.34,0,weatherlink.com 1.10,2013-10-28 04:50:00,
2013-10-27 19:05:00,78.2,74.0,29.99,North,355,1.0,3.0,87,0.00,,,0.34,0,weatherlink.com 1.10,2013-10-28 05:05:00,
2013-10-27 19:20:00,77.9,74.0,30.00,North,355,0.0,1.0,88,0.00,,,0.34,0,weatherlink.com 1.10,2013-10-28 05:20:00,
2013-10-27 19:35:00,77.4,74.0,30.00,NNE,12,0.0,2.0,88,0.00,,,0.34,0,weatherlink.com 1.10,2013-10-28 05:35:00,
2013-10-27 19:50:00,77.3,74.0,30.01,North,11,0.0,2.0,88,0.00,,,0.34,0,weatherlink.com 1.10,2013-10-28 05:50:00,
2013-10-27 20:05:00,77.0,73.0,30.02,North,9,0.0,2.0,88,0.00,,,0.34,0,weatherlink.com 1.10,2013-10-28 06:05:00,
2013-10-27 20:20:00,76.9,74.0,30.02,North,9,0.0,2.0,89,0.00,,,0.34,0,weatherlink.com 1.10,2013-10-28 06:20:00,
2013-10-27 20:35:00,76.9,74.0,30.02,North,5,1.0,2.0,89,0.00,,,0.34,0,weatherlink.com 1.10,2013-10-28 06:35:00,
2013-10-27 20:50:00,76.8,73.0,30.03,North,1,1.0,3.0,89,0.00,,,0.34,0,weatherlink.com 1.10,2013-10-28 06:50:00,
2013-10-27 21:05:00,76.9,74.0,30.02,NNW,338,3.0,4.0,90,0.00,,,0.34,0,weatherlink.com 1.10,2013-10-28 07:05:00,
2013-10-27 21:20:00,76.8,74.0,30.02,NW,324,0.0,3.0,90,0.00,,,0.34,0,weatherlink.com 1.10,2013-10-28 07:20:00,
2013-10-27 21:35:00,77.0,74.0,30.03,NNW,341,0.0,7.0,90,0.00,,,0.34,0,weatherlink.com 1.10,2013-10-28 07:35:00,
2013-10-27 21:50:00,76.8,74.0,30.03,NNW,341,0.0,2.0,90,0.00,,,0.34,0,weatherlink.com 1.10,2013-10-28 07:50:00,
2013-10-27 22:05:00,76.5,74.0,30.03,NNW,334,1.0,3.0,90,0.00,,,0.34,0,weatherlink.com 1.10,2013-10-28 08:05:00,
2013-10-27 22:20:00,76.4,74.0,30.03,NW,317,0.0,2.0,91,0.00,,,0.34,0,weatherlink.com 1.10,2013-10-28 08:20:00,
2013-10-27 22:35:00,76.6,74.0,30.02,NW,317,0.0,1.0,91,0.00,,,0.34,0,weatherlink.com 1.10,2013-10-28 08:35:00,
2013-10-27 22:50:00,76.6,74.0,30.03,NW,317,0.0,0.0,91,0.00,,,0.34,0,weatherlink.com 1.10,2013-10-28 08:50:00,
2013-10-27 23:05:00,76.6,74.0,30.02,NW,317,0.0,1.0,92,0.00,,,0.34,0,weatherlink.com 1.10,2013-10-28 09:05:00,
2013-10-27 23:20:00,76.8,74.0,30.02,NW,317,0.0,1.0,92,0.01,,,0.35,0,weatherlink.com 1.10,2013-10-28 09:20:00,
2013-10-27 23:35:00,76.6,74.0,30.02,NW,317,1.0,2.0,92,0.01,,,0.35,0,weatherlink.com 1.10,2013-10-28 09:35:00,
2013-10-27 23:51:00,76.2,74.0,30.02,NW,317,1.0,1.0,93,0.01,,,0.35,0,weatherlink.com 1.10,2013-10-28 09:51:00,